STARLINK-2435, 47843

Orbit data source: Space-Track

STARLINK-2435, 47843 is a payload satellite owned by SpaceX/Seattle (US) in LEO that was launched on Thu, 11 Mar 2021 UTC via an FALCON 9 launch vehicle from the Air Force Eastern Test Range (AFETR). Payload-class satellites include a variety of spacecraft equipped with specific instruments for various scientific and technological missions. These include communications satellites like Starlink; space stations such as the ISS; scientific satellites like the Hubble; Earth observation satellites from companies like Planet Labs, Umbra, and HawkEye 360; GPS; miniature CubeSats for education and research; and military/defense satellites.

Loading next visibility...
Identifier
47843, 2021-018BJ
Orbit
LEO
Country
Flag of USUS
Related business
Manufacturer
SpaceX/Seattle
Mission
Operational Commercial Communications
Bus & Motor
STARLINK, Unknown motor
Mass
260 kg wet, ~248 kg dry
Launch date (UTC)
2021-03-11 (5 years ago)
Launch vehicle
FALCON 9
Launch site
Air Force Eastern Test Range (AFETR)
Object type
Payload
Rocket body
Debris
Shape & HBR
Box + 1 Pan, 10.1 m
Radar Cross Section
13.562 m², Large (>1 m²)

Expand to show TLE details & history
Last TLE update: 12 hours ago

TLE from 12 hours ago
0 STARLINK-2435
1 47843U 21018BJ  26120.14579703  .00003333  00000-0  11913-3 0  9995
2 47843  53.1596  16.0850 0001063  95.4151 264.6972 15.31698220284447
Epoch: 2026-04-30T03:29Z
TLE epoch observation values (Epoch: 2026-04-30T03:29:56.863Z)
Latitude
0.00001°
Longitude
105.50148°
Altitude
471.713 km
Speed
7.631 km/s
True Right ascension
01h 04m 20s
True Declination
0° 00' 00"
Sunlit
Object was in daylight at epoch
Visualization orbit readout
Latitude
Unknown
Longitude
Unknown
Altitude
Unknown
Speed
Unknown
Apparent Right ascension
Unknown
Apparent Declination
Unknown
Sunlit
N/A
Visualization observer readout
Local Sidereal Time
22:58:05
Azimuth
Unknown
Elevation
Unknown
Doppler factor
Unknown
Orbital elements
Apogee altitude
471.73 km
Perigee altitude
470.274 km
Semi-major axis
6,849.139 km
Eccentricity
0.00011
Inclination
53.1596°
RAAN
16.085°
Arg. of periapsis
95.4151°
True anomaly
264.68507°
Mean anomaly
264.6972°
Eccentric anomaly
264.69114°
Mean motion
3.82903 °/min
Orbital period
94.02 mins
BSTAR
0.00011913
Loading maneuver chart data...
Computing Atmospheric mass density...
Loading historical data...
Loading historical data...
Loading historical data...
Loading historical data...
Loading historical data...
Loading historical data...
Loading historical data...

Documentation

Showing up to 5 results
|